Regional Weather Roundup
Issued by NWS State College, PA

Home | Current Version | Previous Version | Graphics & Text | Print | Product List | Glossary On
Versions: 1 2 3 4 5 6 7 8 9 10 11 12 13 14 15 16 17 18 19 20 21 22 23 24 25 26 27 28 29 30 31 32 33 34 35 36 37 38 39 40 41 42 43 44 45 46 47 48 49 50
000
ASUS41 KCTP 020810
RWRCTP

REGIONAL WEATHER ROUNDUP
NATIONAL WEATHER SERVICE STATE COLLEGE PA
400 AM EDT SUN AUG 02 2015

Note: "fair" indicates few or no clouds below 12,000 feet with no
significant weather and/or obstructions to visibility.

* = STATION THAT DOES NOT REPORT PRECIPITATION /E.G. RAIN...SNOW...ETC/
    THUNDER OR FOG.

PAZ002>004-007>009-013>016-020>023-029>032-020900-
WESTERN PENNSYLVANIA

CITY           SKY/WX    TMP DP  RH WIND       PRES   REMARKS
ERIE           CLEAR     66  55  67 S8        29.89S
MEADVILLE      CLEAR     61  52  72 S5        29.93F
FRANKLIN*      CLEAR     59  50  72 SW7       29.95F
NEW CASTLE     FAIR      59  57  92 CALM      29.95S
BEAVER COUNTY  NOT AVBL
BUTLER*        CLEAR     59  55  88 CALM      29.97S
PITTSBURGH INT PTCLDY    65  56  72 CALM      29.96S
PITTSBURGH     CLEAR     67  52  58 W8        29.95F
INDIANA*       CLEAR     61  59  94 CALM      29.99F
LATROBE        NOT AVBL
WASHINGTON CO* NOT AVBL
$$

PAZ004>006-010>012-017>019-024>028-033>037-041-042-045-046-049>053-020900-
CENTRAL PENNSYLVANIA

CITY           SKY/WX    TMP DP  RH WIND       PRES   REMARKS
BRADFORD       CLOUDY    61  51  70 CALM      29.95S
DUBOIS         PTCLDY    61  54  77 SW3       29.95F
CLEARFIELD     CLEAR     57  54  89 CALM      29.96F
JOHNSTOWN      CLEAR     63  52  67 SW5       29.99F
ALTOONA        CLEAR     61  56  83 SW3       29.97S
STATE COLLEGE  PTCLDY    59  57  91 CALM      29.95F
WILLIAMSPORT   CLEAR     59  56  89 CALM      29.92S
SELINSGROVE    PTCLDY    57  55  93 CALM      29.93S FOG
FT INDIANTOWN  CLEAR     65  57  76 N2        29.92R
CAPITAL CITY   CLEAR     62  57  83 SW5       29.91S
HARRISBURG     CLEAR     67  59  75 NE3       29.90S
YORK           CLEAR     59  57  93 CALM      29.92S
$$

PAZ038>040-043-044-047-048-054-055-060>062-067>071-020900-
EASTERN PENNSYLVANIA

CITY           SKY/WX    TMP DP  RH WIND       PRES   REMARKS
SCRANTON       CLEAR     59  55  87 E3        29.93R
MOUNT POCONO   CLEAR     54  52  93 NW5       29.95S
ALLENTOWN      CLEAR     62  57  83 CALM      29.90S
QUAKERTOWN*    SUNNY     61  57  88 CALM      29.92R
READING        CLEAR     64  59  83 CALM      29.91R
LANCASTER      CLEAR     63  58  83 N3        29.92R
COATESVILLE    SUNNY     66  59  77 W5        29.93S
POTTSTOWN      CLEAR     62  59  90 CALM      29.93R
BLUE BELL      NOT AVBL
DOYLESTOWN     CLEAR     63  59  87 CALM      29.90R
WILLOW GROVE   NOT AVBL
NORTH PHILA    CLEAR     69  57  65 W5        29.90S
PHILADELPHIA   PTCLDY    72  59  63 NW6       29.90R
$$



USA.gov is the U.S. government's official web portal to all federal, state and local government web resources and services.